Bloomington, IN

12:00 AM EST on November 17, 2019 (GMT -0500)
Monroe County

Weather History for KBMG - October, 2019

Change the Weather History Date:

Sunday, October 20, 2019

  Actual Average Record
Temperature  
Mean Temperature 61 °F 54 °F  
Max Temperature 73 °F 66 °F 79 °F (2003)
Min Temperature 48 °F 41 °F 28 °F (1996)
Degree Days  
Heating Degree Days 4 12  
Month to date heating degree days 158 186  
Since 1 July heating degree days 160 271  
Cooling Degree Days 0 0  
Month to date cooling degree days 37 11  
Year to date cooling degree days 1239 924  
Growing Degree Days 11 (Base 50)    
Moisture  
Dew Point 50 °F    
Average Humidity 71    
Maximum Humidity 93    
Minimum Humidity 41    
Precipitation  
Precipitation 0.00 in 0.12 in 1.66 in (2016)
Month to date precipitation 0.95 2.32  
Year to date precipitation 38.38 38.86  
Sea Level Pressure  
Sea Level Pressure 29.86 in    
Wind  
Wind Speed 1 mph ()    
Max Wind Speed 10 mph    
Max Gust Speed 15 mph    
Visibility 9.7 miles    
Events      
T = Trace of Precipitation, MM = Missing Value Source: Averaged Metar Reports

Daily Weather History Graph

Daily Weather History Graph

Search for Another Location

Airport or City:

Astronomy

Oct. 20, 2019 Rise Set
Actual Time 8:01 AM EDT 7:00 PM EDT
Civil Twilight 7:33 AM EDT 7:28 PM EDT
Nautical Twilight 7:02 AM EDT 7:59 PM EDT
Astronomical Twilight 6:31 AM EDT 8:30 PM EDT
Moon No Moon Rise 2:26 PM EDT (10/20)
Length of Visible Light 11h 54m
Length of Day
10h 59m
Waning Gibbous, 59% of the Moon is Illuminated
Oct 20
Waning Gibbous
Oct 21
Last Quarter
Oct 27
New
Nov 4
First Quarter
Nov 12
Full

Hourly Weather History & Observations

Time (EDT) Temp. Dew Point Humidity Pressure Visibility Wind Dir Wind Speed Gust Speed Precip Events Conditions
12:53 AM 53.1 °F 48.0 °F 83% 29.79 in 10.0 mi Calm Calm - N/A   Partly Cloudy
1:53 AM 55.0 °F 50.0 °F 83% 29.78 in 10.0 mi Calm Calm - N/A   Scattered Clouds
2:53 AM 57.0 °F 51.1 °F 81% 29.78 in 10.0 mi Calm Calm - N/A   Partly Cloudy
3:53 AM 57.0 °F 53.1 °F 87% 29.78 in 10.0 mi Variable 3.5 mph - N/A   Partly Cloudy
4:53 AM 54.0 °F 51.1 °F 90% 29.79 in 10.0 mi WSW 4.6 mph - N/A   Scattered Clouds
5:53 AM 55.0 °F 50.0 °F 83% 29.81 in 10.0 mi Calm Calm - N/A   Partly Cloudy
6:53 AM 51.1 °F 48.0 °F 89% 29.83 in 10.0 mi Calm Calm - N/A   Scattered Clouds
7:53 AM 53.1 °F 48.9 °F 86% 29.85 in 9.0 mi Calm Calm - N/A   Scattered Clouds
8:53 AM 51.1 °F 48.0 °F 89% 29.87 in 9.0 mi Calm Calm - N/A   Clear
9:53 AM 57.9 °F 50.0 °F 75% 29.89 in 10.0 mi Calm Calm - N/A   Clear
10:53 AM 63.0 °F 48.0 °F 58% 29.90 in 10.0 mi Calm Calm - N/A   Clear
11:53 AM 66.0 °F 48.0 °F 52% 29.90 in 10.0 mi Calm Calm - N/A   Clear
12:53 PM 71.1 °F 48.9 °F 45% 29.90 in 10.0 mi North 4.6 mph - N/A   Clear
1:53 PM 72.0 °F 48.9 °F 44% 29.89 in 10.0 mi WNW 5.8 mph - N/A   Clear
2:53 PM 72.0 °F 48.9 °F 44% 29.87 in 10.0 mi West 5.8 mph - N/A   Partly Cloudy
3:53 PM 73.0 °F 48.9 °F 42% 29.86 in 10.0 mi South 6.9 mph - N/A   Partly Cloudy
4:53 PM 73.0 °F 48.9 °F 42% 29.86 in 10.0 mi North - - N/A   Clear
5:53 PM 72.0 °F 48.9 °F 44% 29.86 in 10.0 mi Variable 6.9 mph - N/A   Mostly Cloudy
6:53 PM 64.9 °F 53.1 °F 65% 29.88 in 10.0 mi Calm Calm - N/A   Mostly Cloudy
7:53 PM 60.1 °F 52.0 °F 75% 29.89 in 6.0 mi Calm Calm - N/A   Overcast
8:53 PM 57.0 °F 51.1 °F 81% 29.91 in 10.0 mi Calm Calm - N/A   Mostly Cloudy
9:53 PM 54.0 °F 50.0 °F 86% 29.90 in 10.0 mi Calm Calm - N/A   Scattered Clouds
10:53 PM 53.1 °F 50.0 °F 89% 29.91 in 8.0 mi Calm Calm - N/A   Clear
11:53 PM 51.1 °F 48.0 °F 89% 29.91 in 10.0 mi Calm Calm - N/A   Clear